Location: Cheching
(60.0667°N, 164.2167°W)
Time: 11:16:06
(UTC+00:00)

FENGYUN 1C DEB - Pass Details

Date: 30 September 2021
Orbit: 727 x 819 km, 99.4° (Epoch: 17 October)

Event Time Altitude Azimuth Distance (km) Brightness Sun altitude
Exits shadow 11:27:00 30° 62° (ENE) 1,329 ? -32.4°
Maximum altitude 11:27:29 30° 51° (NE) 1,314 ? -32.4°
Drops below altitude 10° 11:31:48 10° 351° (N) 2,288 ? -32.3°
Sets 11:34:21 0° 341° (NNW) 3,231 ? -32.2°
